Location: Caltech
(34.1382°N, 118.1253°W)
Time: 19:43:12
(UTC-07:00)

FENGYUN 3A - Visible Passes

Search period start: 23 July 2017 00:00
Search period end: 02 August 2017 00:00
Orbit: 819 x 833 km, 98.4° (Epoch: 22 July)

Date Brightness Start Highest point End Pass type
(mag) Time Alt. Az. Time Alt. Az. Time Alt. Az.
23 Jul 5.6 20:33:59 10° SSW 20:38:39 30° W 20:43:21 10° NW visible
26 Jul 6.8 21:22:01 10° W 21:22:33 10° W 21:23:06 10° W visible
27 Jul 6.3 21:00:05 10° SW 21:03:27 17° W 21:06:50 10° NW visible
28 Jul 5.9 20:39:59 10° SSW 20:44:24 26° W 20:48:51 10° NW visible
29 Jul 5.2 20:20:23 10° SSW 20:25:24 39° W 20:30:26 10° NNW visible
01 Aug 6.4 21:06:25 10° SW 21:09:13 14° W 21:12:01 10° WNW visible
